Find Kosmos-1195

NORAD ID: 11878 Int'l Des: 1980-058 Owner: GUKOSR Country: SU operational
LEOCIRCULAR

当前视图

正在加载3D地球...

关于 Kosmos-1195

正在加载描述...

即将过境

Passes for default location (London). Set your location on the main map for personalized predictions.

高度历史

Loading altitude history...

两行轨道根数

1 11878U 80058D 26151.48867748 -.00000018 00000-0 -14798-4 0 9997
2 11878 74.0183 314.2362 0015803 118.7716 298.7518 12.50616457 95279
Epoch: May 31, 2026 • Age: 7 hours

当前状态

高度 1498.2 km
速度 7.11 km/s
星下点 -72.10°S, 27.88°E
发射日期 Jul 9, 1980
运行时间 45.8 years
类型 other

技术详情

分类 Payload
质量 60.00 kg
干质量 60.00 kg
总质量 60.00 kg
长度 0.80 m
直径 0.80 m
跨度 0.80 m
形状 Poly
制造商 NPOPM
平台类型 Strela-1 11F625
阶段状态 In Orbit
所有者/国家 GUKOSR/SU

Most Searched